GW5243 Weather Reports


Display with metric or nautical units.
time (UTC)temp
F
wind
direction
speed
MPH
gust
MPH
rain 1hr
in
rain 24hr
in
rain mn
in
humidity
%
barometer
mb
20260502184504 50 140 0.0 2.0 0.00 0.19 0.19 81 1009.3
20260502183004 51 80 1.0 4.0 0.00 0.19 0.19 79 1009.3
20260502181507 51 317 0.0 2.0 0.00 0.19 0.19 79 1009.4
20260502163007 48 102 0.0 2.0 0.00 0.14 0.14 87 1009.8
20260502161504 48 55 1.0 3.0 0.00 0.14 0.14 90 1009.8
20260502151521 47 71 0.0 2.0 0.06 0.14 0.14 94 1010.2
20260502123015 42 263 0.0 2.0 0.00 0.08 0.08 95 1011.1
20260502121517 42 270 0.0 2.0 0.00 0.08 0.08 95 1010.9
20260502114522 41 348 0.0 2.0 0.00 0.08 0.08 95 1010.8
20260502113011 41 346 0.0 2.0 0.00 0.08 0.08 95 1010.8
20260502111513 41 346 0.0 2.0 0.00 0.08 0.08 95 1011.0
20260502110026 0 0.0 0.0 0.00 0.08 0.08 1010.8
20260502104528 0 0.0 0.0 0.00 0.08 0.08 1010.6
20260502103028 0 0.0 0.0 0.00 0.08 0.08 1010.6
20260502101534 0 0.0 0.0 0.00 0.08 0.08 1010.7
20260502091530 0 0.0 0.0 0.00 0.08 0.08 1010.8
20260502071528 40 296 0.0 1.0 0.05 0.08 0.08 94 1011.0
20260502070027 40 38 0.0 2.0 0.07 0.08 0.08 93 1011.0
20260502064538 40 56 0.0 2.0 0.08 0.08 0.08 93 1011.3
20260502063025 40 124 0.0 0.0 0.06 0.06 0.06 92 1011.5
20260502061524 40 195 0.0 0.0 0.03 0.03 0.03 91 1011.8
20260502060028 40 195 0.0 0.0 0.01 0.01 0.01 89 1011.7
20260502054529 40 188 0.0 1.0 0.00 0.00 0.00 87 1011.6
20260502053021 40 302 0.0 2.0 0.00 0.00 0.00 85 1011.4
20260502051531 40 180 0.0 0.0 0.00 0.00 0.00 84 1011.3
20260502050025 40 180 0.0 2.0 0.00 0.00 0.00 83 1011.2
20260502044535 40 321 0.0 2.0 0.00 0.00 0.00 83 1010.9
20260502043016 39 311 0.0 0.0 0.00 0.00 0.00 83 1010.8
20260502041526 39 308 0.0 0.0 0.00 0.00 0.00 84 1010.7
20260502040007 39 308 0.0 0.0 0.00 0.00 0.00 83 1010.7
20260502034510 38 308 0.0 0.0 0.00 0.00 0.00 84 1010.6
20260502033015 38 308 0.0 0.0 0.00 0.00 0.00 84 1010.6
20260502031521 37 308 0.0 0.0 0.00 0.00 0.00 82 1010.4
20260502030028 37 308 0.0 0.0 0.00 0.00 0.00 82 1010.4
20260502024508 37 308 0.0 0.0 0.00 0.00 0.00 80 1010.4
20260502023015 38 308 0.0 0.0 0.00 0.00 0.00 78 1010.3
20260502021517 39 308 0.0 2.0 0.00 0.00 0.00 76 1010.5
20260502020024 41 307 0.0 0.0 0.00 0.00 0.00 73 1010.6
20260502014538 42 307 0.0 0.0 0.00 0.00 0.00 74 1010.6
20260502013009 42 307 0.0 0.0 0.00 0.00 0.00 75 1010.6
20260502011514 41 307 0.0 0.0 0.00 0.00 0.00 75 1010.4
20260502010017 41 307 0.0 0.0 0.00 0.01 0.00 74 1010.2
20260502004523 41 307 0.0 0.0 0.00 0.04 0.00 71 1010.0
20260502003023 42 307 0.0 0.0 0.00 0.04 0.00 70 1009.9
20260502001522 43 307 0.0 0.0 0.00 0.06 0.00 69 1009.7
20260502000015 44 307 0.0 0.0 0.00 0.10 0.00 68 1009.5
20260501234519 45 303 0.0 0.0 0.00 0.13 0.00 65 1009.3
20260501233022 47 303 0.0 2.0 0.00 0.13 0.00 63 1009.0
20260501231526 49 308 0.0 2.0 0.00 0.13 0.00 60 1009.0
20260501230012 52 304 2.0 4.0 0.00 0.14 0.00 39 1008.8
20260501224518 54 38 1.0 4.0 0.00 0.14 0.00 40 1008.7
20260501223023 55 266 2.0 3.0 0.00 0.14 0.00 36 1008.6
20260501221526 55 350 2.0 4.0 0.00 0.14 0.00 36 1008.6
20260501220028 57 256 2.0 5.0 0.00 0.14 0.00 35 1008.7
20260501214514 56 271 1.0 7.0 0.00 0.14 0.00 37 1008.7
20260501213019 56 309 3.0 9.0 0.00 0.14 0.00 38 1008.6
20260501211523 54 360 1.0 6.0 0.00 0.14 0.00 37 1008.5
20260501210032 57 64 3.0 9.0 0.00 0.14 0.00 35 1008.2
20260501204525 56 348 2.0 9.0 0.00 0.14 0.00 33 1008.2
20260501203019 56 225 2.0 8.0 0.00 0.14 0.00 35 1008.2
20260501201525 55 174 4.0 10.0 0.00 0.14 0.00 36 1008.2
20260501200025 55 250 3.0 10.0 0.00 0.15 0.00 37 1008.3
20260501194530 56 80 4.0 13.0 0.00 0.15 0.00 33 1008.3
20260501193018 56 168 3.0 10.0 0.00 0.15 0.00 36 1008.3
20260501191522 57 251 3.0 9.0 0.00 0.15 0.00 34 1008.5
20260501190025 55 279 3.0 13.0 0.00 0.15 0.00 35 1008.7